#timestamp,LO_Frequency,Hit 
1506380415.8,286047003.2,N
1506380435.7,286047006.8,N
1506380455.5,286047007.6,N
1506380475.3,286047003.7,N
1506380495.2,286047002.0,N
1506380515.9,286047004.3,N
1506380535.7,286047002.7,N
1506380555.6,286047005.0,N
1506380575.4,286047004.9,N
1506380595.2,286047006.3,N
1506380615.1,286047009.8,N
1506380616.0,286047009.8,N
1506380635.8,286047012.3,P
1506380655.6,286047003.5,N
1506380675.5,286047004.8,N
1506380695.3,286047004.7,N
1506380715.1,286047008.3,N
1506380735.9,286047007.5,N
1506380755.7,286047001.4,N
1506380775.5,286047004.3,N
1506380795.3,286047005.0,N
1506380815.2,286047004.6,N
1506380835.0,286047003.7,N
1506380835.9,286047003.7,N
1506380855.7,286047003.3,N
1506380875.6,286047007.5,N
1506380895.4,286047002.9,N
1506380915.2,286047000.8,N
1506380935.1,286047002.8,N
1506380936.0,286047002.8,N
1506380955.8,286047004.2,N
1506380975.6,286047005.6,N
1506380995.5,286047005.3,N
1506381015.3,286047001.8,N
1506381035.1,286047003.4,N
1506381055.9,286047004.4,N
1506381075.7,286047005.1,N
1506381095.5,286047007.2,P
1506381115.4,286046998.1,N
1506381135.2,286047000.6,N
1506381155.0,286046997.2,N
1506381155.9,286046997.2,N
1506381175.8,286046993.4,N
1506381195.6,286046990.5,N
1506381215.4,286046996.5,N
1506381235.3,286046995.2,N
1506381255.1,286046997.3,N
1506381256.0,286046997.3,N
1506381275.8,286047001.0,N
1506381295.7,286046998.1,N
1506381315.5,286046999.3,N
1506381335.3,286047002.8,N
1506381355.1,286047002.2,N
1506381375.9,286047004.2,N
1506381395.7,286047004.4,N
1506381415.5,286047002.0,N
1506381435.4,286047004.3,N
1506381455.2,286047004.2,N
1506381475.0,286047003.7,N
1506381475.9,286047003.7,N
1506381495.8,286047007.2,N
1506381515.6,286047006.5,N
1506381535.4,286047007.7,N
1506381555.3,286047005.7,N
1506381575.1,286047006.0,N
1506381576.0,286047006.0,N
1506381595.8,286047008.8,N
1506381615.7,286047005.7,N
1506381635.5,286047003.0,N
1506381655.3,286046999.7,N
1506381675.1,286047003.3,N
1506381695.9,286047007.5,N
1506381715.7,286047005.7,N
1506381735.5,286047001.7,N
1506381755.4,286047003.3,N
1506381775.2,286047006.7,N
1506381795.0,286047010.3,P
1506381796.0,286047010.3,P
1506381815.8,286047006.2,N
1506381835.6,286047007.4,N
1506381855.5,286047010.8,P
1506381875.3,286047002.4,N
1506381895.1,286047000.0,N
1506381915.9,286046999.5,N
1506381935.7,286046999.5,N
1506381955.5,286046998.6,N
1506381975.3,286046998.2,N
1506381995.2,286046998.6,N
1506382015.0,286046997.4,N
1506382015.9,286046997.4,N
1506382035.7,286046999.5,N
1506382055.6,286046997.0,N
1506382075.4,286046993.3,N
1506382095.2,286046994.2,N
1506382115.1,286046994.1,N
1506382116.0,286046994.1,N
1506382135.8,286046994.5,N
1506382155.6,286046988.7,N
1506382175.5,286046986.8,N
1506382195.3,286046984.9,N
1506382215.1,286046984.6,N
1506382235.9,286046986.5,N
1506382255.7,286046985.6,N
1506382275.5,286046988.2,N
1506382295.3,286046989.2,N
1506382315.2,286046992.7,N
1506382335.0,286046989.1,N
1506382335.9,286046989.1,N
1506382355.7,286046989.9,N
1506382375.6,286046987.5,N
1506382395.4,286046985.6,N
1506382415.2,286046989.4,N
1506382435.1,286046991.6,N
1506382436.0,286046991.6,N
1506382455.8,286046993.9,N
1506382475.6,286046994.1,N
1506382495.5,286046992.6,N
1506382515.3,286046992.5,N
1506382535.1,286046990.1,N
1506382555.9,286046990.5,N
1506382575.7,286046994.8,N
1506382595.5,286046995.9,N
1506382615.4,286046992.2,N
1506382635.2,286046990.4,N
1506382655.0,286046992.8,N
1506382655.9,286046992.8,N
1506382675.7,286046990.9,N
1506382695.6,286046987.9,P
1506382715.4,286046996.7,N
1506382735.3,286047000.2,N
1506382755.1,286047004.3,N
1506382756.0,286047004.3,N
1506382775.8,286047002.6,N
1506382795.7,286047003.9,N
1506382815.5,286047009.1,N
1506382835.3,286047011.2,N
1506382855.1,286047005.8,N
1506382875.9,286047007.6,N
1506382895.7,286047005.1,N
1506382915.5,286047001.5,N
1506382935.4,286047004.1,N
1506382955.2,286047001.8,N
1506382975.0,286047002.0,N
1506382975.9,286047002.0,N
1506382995.8,286046998.3,N
1506383015.6,286046997.5,N
1506383035.4,286046995.1,N
1506383055.3,286046994.2,N
1506383075.1,286046994.1,N
1506383076.0,286046994.1,N
1506383095.8,286046997.1,N
1506383115.7,286046998.8,N
1506383135.5,286046996.6,N
1506383155.3,286047000.6,N
1506383175.1,286047003.0,N
1506383195.9,286047003.5,N
1506383215.7,286047005.6,N
1506383235.5,286047003.8,N
1506383255.4,286047000.6,N
1506383275.2,286046998.9,N
1506383295.0,286046996.5,N
1506383295.9,286046996.5,N
1506383315.8,286046997.2,N
1506383335.6,286046997.3,N
1506383355.4,286046997.1,N
1506383375.3,286046998.5,N
1506383395.1,286047002.8,N
1506383396.0,286047002.8,N
1506383415.8,286046999.9,N
1506383435.7,286047006.0,N
1506383455.5,286047002.1,N
1506383475.3,286046999.9,N
1506383495.2,286047000.5,N
1506383515.9,286046998.5,N
1506383535.7,286046999.2,N
1506383555.5,286046999.4,N
1506383575.4,286047001.0,N
1506383595.2,286047002.7,N
1506383615.0,286047001.4,N
1506383615.9,286047001.4,N
1506383635.8,286047004.9,N
1506383655.6,286047003.4,N
1506383675.4,286047005.0,N
1506383695.3,286047005.1,N
1506383715.1,286047007.4,N
1506383716.0,286047007.4,N
1506383735.8,286047009.2,N
1506383755.7,286047007.3,N
1506383775.5,286047003.4,N
1506383795.3,286047007.3,N
1506383815.2,286047007.6,N
1506383835.9,286047008.3,N
1506383855.7,286047005.5,N
1506383875.6,286047004.7,N
1506383895.4,286047006.6,N
1506383915.2,286047009.0,N
1506383935.1,286047012.1,P
1506383936.0,286047012.1,N
1506383955.8,286047007.4,N
1506383975.6,286047004.5,N
1506383995.5,286047007.4,N
